Location: Litvinovka
(48.6667°N, 34.3500°E)
Time: 07:08:20
(UTC+00:00)

Cosmos 1536 Rocket - Pass Details

Date: 18 September 2020
Orbit: 606 x 631 km, 82.5° (Epoch: 19 October)

Event Time Altitude Azimuth Distance (km) Brightness Sun altitude
Rises 16:54:20 0° 356° (N) 2,913 7.3 -11.6°
Reaches altitude 10° 16:56:42 10° 4° (N) 2,006 6.3 -11.9°
Maximum altitude 17:00:53 39° 74° (ENE) 941 4.1 -12.6°
Enters shadow 17:04:07 16° 138° (SE) 1,659 5.2 -13.1°
